Tracking 25689 objects as of 7-Jul-2022
HD Live streaming from Space Station
objects crossing your sky now

FENGYUN 1C DEB

Track FENGYUN 1C DEB now!
10-day predictions


NORAD ID: 30678
Int'l Code: 1999-025AQL
Perigee: 820.7 km
Apogee: 962.9 km
Inclination: 99.1 °
Period: 102.7 minutes
Semi major axis: 7262 km
RCS: 0.0357 m2 (small)
Launch date: May 10, 1999
Source: People's Republic of China (PRC)
Launch site: Taiyaun Space Center, China (TSC)

Note: This is SATELLITE DEBRIS
aabbcc
Your satellite tracking list
Your tracking list is empty




NASA's NSSDC Master Catalog

Two Line Element Set (TLE):
1 30678U 99025AQL 22187.78995355  .00001330  00000-0  85360-3 0  9992
2 30678  99.0666 118.7153 0097924 155.3936 231.8652 14.02645181781714
Source of the keplerian elements: AFSPC